www.pogodaiklimat.ru

Погода и климат >> Архив погоды >> Канада >> Resolute Airport


ПОГОДА в Resolute Airport

  • Прогноз погоды в Resolute Airport
  • Монитор погоды в Resolute Airport
  • Климат города

АРХИВ ПОГОДЫ в Resolute Airport

Время (UTC), дата Ветер
(напр.,м/с)
 
Видим.   Явления Облачность Т
(С)
Тd
(С)
f
(%)
Тe
(С)
Тes
(С)
Комфортность P
(гПа)
Po
(гПа)
Тmin
(С)
Tmax
(С)
R
(мм)
R24
(мм)
S
(см)
03 13.07 С 9 30 км ясно +3.5 -0.6 75 -3 -3 1011.4 1002.7
06 13.07 СЗ 6 30 км 9/9 1000 м
[Sc]
+2.8 0.0 82 -3 -3 1012.3 1003.6 +1.2 +6.4 1
09 13.07 СЗ 4 30 км 10/10 1000 м
[]
+1.5 0.0 90 -3 -3 1013.1 1004.3
12 13.07 СЗ 4 30 км 10/10 300 м
[Sc]
+1.6 +0.3 91 -4 -4 1013.6 1004.8 +0.9 +6.4
15 13.07 З 5 4800 м 6/6 50 м
[]
+0.8 +0.2 96 -5 -4 1013.0 1004.2
18 13.07 З 5 200 м туман {морось} н/о +0.2 -0.2 97 -6 -6 1013.1 1004.3 +0.2 +2.7 0.0
21 13.07 З 7 600 м н/о +0.6 +0.3 98 -6 -6 1013.2 1004.4
00 14.07 З 4 16 км {морось} 10/10 100 м
[Sc]
+1.2 +0.3 94 -4 -4 1012.3 1003.5 -0.1 +1.9 0.0
03 14.07 З 6 30 км 10/10 50 м
[]
+0.9 +0.2 95 -6 -6 1011.0 1002.2
06 14.07 ЮЗ 7 30 км 10/10 100 м
[St]
+1.4 +0.3 92 -5 -5 1009.2 1000.4 -0.1 +2.7 5
09 14.07 ЮЗ 7 16 км 10/10 50 м
[]
+0.6 0.0 96 -6 -6 1007.8 999.0
12 14.07 З 7 14 км слабый снег {морось} 10/10 50 м
[St]
+0.5 +0.1 97 -7 -7 1006.6 997.9 +0.5 +2.7 0.2
15 14.07 З 6 12 км 10/10 <50 м
[]
+0.7 +0.4 98 -6 -6 1006.5 997.8
18 14.07 З 7 16 км {дождь, морось} 10/10 50 м
[St]
+0.8 +0.4 97 -6 -6 1006.9 998.2 -0.1 +1.4 0.0
21 14.07 З 6 200 м н/о +0.8 +0.4 97 -6 -6 1008.0 999.2
00 15.07 800 м туман н/о +0.8 +0.4 97 -5 -4 1009.6 1000.8 +0.4 +1.6
03 15.07 З 4 16 км 10/10 50 м
[]
+0.4 +0.1 98 -5 -5 1010.5 1001.7
06 15.07 СЗ 2 30 км 10/10 50 м
[St]
+0.2 -0.3 96 -3 -3 1010.8 1002.0 +0.2 +1.6 80
09 15.07 З 3 4800 м 10/10 50 м
[]
+0.3 -0.1 97 -4 -4 1011.2 1002.4
12 15.07 СЗ 2 600 м слабая морось {туман} н/о +0.8 +0.5 98 -3 -3 1011.3 1002.5 +0.1 +1.6 0.0
15 15.07 З 6 200 м н/о +0.3 0.0 98 -6 -6 1011.5 1002.7
18 15.07 З 4 400 м туман местами {морось} н/о +0.4 +0.2 99 -5 -5 1011.9 1003.1 0.0 +1.1 0.0
21 15.07 СЗ 5 200 м н/о +0.8 +0.5 98 -5 -5 1012.8 1004.0
00 16.07 СЗ 5 30 км в посл. час туман {морось} 10/10 50 м
[Sc]
+1.6 +1.3 98 -4 -4 1013.4 1004.6 0.0 +1.9 0.0
03 16.07 СЗ 3 30 км 10/10 50 м
[]
+1.2 +0.5 95 -3 -3 1014.0 1005.2
06 16.07 Ю 3 30 км 9/8 100 м
[St Ac trans]
+1.2 +0.6 96 -3 -3 1013.6 1004.8 0.0 +2.0
09 16.07 ЮВ 5 30 км 10/10 200 м
[]
+0.4 -0.3 95 -6 -6 1013.2 1004.4
12 16.07 ЮВ 7 30 км 3/3 50 м
[St Ci fib]
+1.1 +0.3 94 -6 -5 1012.2 1003.4 +0.3 +2.0
15 16.07 ЮВ 4 45 км 6/6 600 м
[]
+4.2 +2.1 86 0 +2 1011.4 1002.6
18 16.07 Ю 4 45 км 8/8 600 м
[Sc Ac trans Cc]
+6.2 +3.0 80 +3 +4 1010.9 1002.2 +0.3 +6.8
21 16.07 ЮВ 2 45 км 8/0
[]
+8.8 +4.8 76 +7 +11 1010.9 1002.2
00 17.07 штиль 0 45 км 8/0
[Ac As]
+8.9 +4.9 76 +8 +10 1011.1 1002.4 +0.3 +9.2
03 17.07 В 7 45 км 9/0
[]
+3.8 +1.7 86 -2 -2 1010.7 1002.0
06 17.07 ЮВ 5 24 км 10/0
[]
+6.3 +4.0 85 +2 +2 1010.2 1001.5 +0.3 +10.1
09 17.07 ЮВ 6 24 км 10/0 2000 м
[]
+7.2 +4.5 83 +3 +3 1009.7 1001.1
12 17.07 ЮВ 4 30 км 10/1 600 м
[Sc Ac As Ci fib]
+8.7 +5.4 80 +6 +6 1009.2 1000.6 +3.8 +10.1
15 17.07 ЮВ 6 30 км 9/0
[]
+11.3 +6.3 71 +9 +10 1008.8 1000.2
18 17.07 ЮВ 8 30 км 9/0
[Ac und]
+11.8 +6.0 68 +9 +9 1008.2 999.6 +3.8 +12.8
21 17.07 ЮВ 9 45 км 6/0
[]
+13.1 +7.2 67 +10 +11 1007.3 998.7
00 18.07 ЮВ 7 45 км 5/0
[Ac As]
+11.3 +5.7 68 +8 +9 1006.7 998.1 +5.7 +14.0
03 18.07 ЮВ 8 24 км 10/0
[]
+10.2 +5.8 74 +6 +7 1005.9 997.3
06 18.07 ЮВ 8 24 км 10/0
[Ac und Cs]
+8.8 +4.8 76 +5 +5 1005.2 996.6 +5.7 +14.0 191
09 18.07 ЮВ 9 24 км 10/10 1500 м
[]
+8.6 +3.9 72 +4 +4 1004.7 996.1
12 18.07 ЮВ 8 24 км 10/0
[Ac As]
+7.4 +3.6 77 +3 +3 1004.7 996.1 +7.3 +14.0
15 18.07 ЮВ 4 24 км 10/10 100 м
[]
+3.1 +1.9 92 -1 -1 1005.6 997.0
18 18.07 З 3 400 м туман местами {дождь} н/о +2.4 +2.0 97 -2 -2 1006.9 998.2 +2.2 +9.3 0.4
21 18.07 З 3 1200 м 4/4 50 м
[]
+2.0 +1.5 96 -3 +1 1008.6 999.9
00 19.07 З 4 200 м туман местами {морось} н/о +1.6 +1.2 97 -4 -4 1010.2 1001.5 +1.4 +7.8 0.0
03 19.07 СЗ 3 1000 м н/о +1.2 +0.9 98 -4 -4 1011.7 1002.9
06 19.07 З 3 1000 м {туман} н/о +0.3 0.0 98 -5 -5 1011.7 1002.9 +0.3 +9.3 101
09 19.07 СЗ 3 800 м 3/3 50 м
[]
+0.5 +0.2 98 -4 -4 1012.3 1003.5
12 19.07 СЗ 5 14 км {морось, туман} 10/10 100 м
[St]
+2.0 +1.8 99 -4 -4 1013.1 1004.3 +0.2 +9.3 0.0
15 19.07 З 5 600 м н/о +1.6 +1.3 98 -4 -4 1013.3 1004.5
18 19.07 З 6 24 км в посл. час туман {морось} 10/10 50 м
[Sc]
+1.1 +0.8 98 -5 -5 1013.3 1004.5 +0.2 +2.3 0.0
21 19.07 З 5 30 км 9/9 100 м
[]
+1.7 +0.3 90 -4 -4 1013.2 1004.4

 

Местоположение метеостанции Resolute Airport (Канада): широта 74.72 долгота -94.98 высота над уровнем моря 67 м.

В архиве по умолчанию представлена погода в Resolute Airport за последнюю неделю. Архивные данные за месяц целиком и за предыдущие месяцы, начиная с января 2011 года, Вы можете получить, выбрав интересующий диапазон дат из раскрывающегося списка и нажав кнопку "Ввод!".


*Определитесь, кто Вы:
робот инопланетянин человек

Внимание! Время в таблицах - всемирное. Для получения местного времени необходимо прибавить поправку, которая в Resolute Airport равна -6 ч.

Смотрите также архив погоды в соседних городах и на ближайших метеорологических станциях:

Погода в Resolute Cs (Канада) (1 км)
Погода в Stefansson Island (Канада) (326 км)
Погода в Arctic Bay (Канада) (362 км)
Погода в Isachsen (aut) (Канада) (500 км)
Погода в Pond Inlet Airport (Канада) (574 км)
Погода в Pond Inlet Climate (Канада) (575 км)
Погода в Spence bay (Канада) (577 км)
Погода в Chris Hadfield (Канада) (599 км)
Погода в Eureka (Канада) (623 км)
Погода в Eureka Climate (Канада) (624 км)

Пояснения к столбцам:

Ветер - указаны скорость ветра в м/с - средняя за 10 мин, порывы в срок и между сроками (в фигурных скобках) и направление, откуда дует ветер: С - северный, СВ - северо-восточный, В - восточный, ЮВ - юго-восточный, Ю - южный, ЮЗ - юго-западный, З - западный, СЗ - северо-западный.
Видимость - горизонтальная дальность видимости в метрах или километрах. При видимости от 1 до 10 км при отсутствии осадков обычно наблюдается дымка, при ухудшении видимости до 1 км и менее - туман. В сухую погоду видимость может ухудшаться дымом, пылью или мглою.
Явления - указаны атмосферные явления, наблюдавшиеся в срок или в последний час перед сроком; фигурными скобками обозначены явления, наблюдавшиеся между сроками (за 1-3 часа до срока); квадратными скобками обозначены град или гололедные отложения с указанием их диаметра в мм.
Облачность - указаны через наклонную черту общая и нижняя облачность в баллах и высота нижней границы облаков в метрах; квадратными скобками обозначены формы облаков: Ci - перистые, Cs - перисто-слоистые, Cc - перисто-кучевые, Ac - высококучевые, As - высокослоистые, Sc - слоисто-кучевые, Ns - слоисто-дождевые, Cu - кучевые, Cb - кучево-дождевые. Подробнее классификацию облаков см. в Атласе облаков (PDF).
T - Температура воздуха - температура, измеренная на высоте 2 м над землей.
Td - Температура точки росы - температура, при понижении до которой содержащийся в воздухе водяной пар достигнет насыщения.
f - Относительная влажность воздуха - влажноcть воздуха, измеренная на высоте 2 м над землей.
Te - Эффективная температура - температура, которую ощущает одетый по сезону человек в тени. Характеристика душности погоды. При расчете учитывается влияние влажности воздуха и скорости ветра на теплоощущения человека.
Tes - Эффективная температура на солнце - температура, которую ощущает человек, с поправкой на солнечный нагрев. Характеристика знойности погоды. Зависит от высоты солнца над горизонтом, облачности и скорости ветра. Ночью, в пасмурную погоду, а также при ветре 12 м/с и более поправка равна нулю.
P - Атмосферное давление - приведенное к уровню моря атмосферное давление.
Po - Атмосферное давление - измеренное на уровне метеостанции атмосферное давление.
Tmin - Минимальная температура - минимум температуры воздуха на высоте 2 м над землей.
Tmax - Максимальная температура - максимум температуры воздуха на высоте 2 м над землей.
R - Количество осадков - Количество выпавших осадков за период времени, мм. При наведении курсора мыши на число - период времени, за который выпало указанное количество осадков.
R24 - Количество осадков - Количество выпавших осадков за 24 часа, мм.
S - Снежный покров - Высота снежного покрова, см. При наведении курсора мыши на число - состояние снежного покрова и степень покрытия местности в баллах.